,,PA_Meas_PMT16A,,PR_Meas_QMR101_102,,RH_Meas_QMH101,,SR_Meas_QMS101,,TA_Meas_QMH101,,GenWind,,GenWind,
time,status,PA,status,PR,status,RH,status,SR,status,TA,status,DirAvg,status,SpdAvg,
2011-06-29, 00:00:05,VALID,918.337,VALID,0,VALID,96.299,VALID,0,VALID,20.0718,VALID,16,VALID,0.721875,
2011-06-29, 00:01:05,VALID,918.318,VALID,0,VALID,96.3905,VALID,0,VALID,20.0913,VALID,16,VALID,1.03047,
2011-06-29, 00:02:05,VALID,918.333,VALID,0,VALID,96.4133,VALID,0,VALID,20.1108,VALID,22,VALID,1.38281,
2011-06-29, 00:03:05,VALID,918.319,VALID,0,VALID,96.4133,VALID,0,VALID,20.1108,VALID,21,VALID,1.19062,
2011-06-29, 00:04:05,VALID,918.34,VALID,0,VALID,96.4438,VALID,0,VALID,20.1513,VALID,29,VALID,1.36836,
2011-06-29, 00:05:05,VALID,918.298,VALID,0,VALID,96.2685,VALID,0,VALID,20.0733,VALID,1,VALID,1.11992,
2011-06-29, 00:06:05,VALID,918.314,VALID,0,VALID,96.2914,VALID,0,VALID,20.0328,VALID,15,VALID,0.776563,
2011-06-29, 00:07:05,VALID,918.273,VALID,0,VALID,96.2456,VALID,0,VALID,20.0133,VALID,14,VALID,1.16172,
2011-06-29, 00:08:05,VALID,918.272,VALID,0,VALID,96.2761,VALID,0,VALID,19.9938,VALID,15,VALID,1.06523,
2011-06-29, 00:09:05,VALID,918.291,VALID,0,VALID,96.238,VALID,0,VALID,19.9938,VALID,15,VALID,1.17695,
2011-06-29, 00:10:05,VALID,918.283,VALID,0,VALID,96.3981,VALID,0,VALID,19.9938,VALID,15,VALID,1.60547,
2011-06-29, 00:11:05,VALID,918.285,VALID,0,VALID,96.4286,VALID,0,VALID,20.0733,VALID,15,VALID,0.921484,
2011-06-29, 00:12:05,VALID,918.297,VALID,0,VALID,96.421,VALID,0,VALID,20.0538,VALID,23,VALID,1.48789,
2011-06-29, 00:13:05,VALID,918.282,VALID,0,VALID,96.3219,VALID,0,VALID,20.0343,VALID,348,VALID,1.65156,
2011-06-29, 00:14:05,VALID,918.322,VALID,0,VALID,96.4286,VALID,0,VALID,20.0148,VALID,10,VALID,0.640625,
2011-06-29, 00:15:05,VALID,918.33,VALID,0,VALID,96.4057,VALID,0,VALID,19.9938,VALID,9,VALID,0.576172,
2011-06-29, 00:16:05,VALID,918.305,VALID,0,VALID,96.421,VALID,0,VALID,19.9953,VALID,10,VALID,0.691016,
2011-06-29, 00:17:05,VALID,918.307,VALID,0,VALID,96.4515,VALID,0,VALID,19.9743,VALID,9,VALID,0.278906,
2011-06-29, 00:18:05,VALID,918.294,VALID,0,VALID,96.4591,VALID,0,VALID,20.0343,VALID,10,VALID,0.51875,
2011-06-29, 00:19:05,VALID,918.281,VALID,0,VALID,96.4896,VALID,0,VALID,20.0133,VALID,9,VALID,0.0921875,
2011-06-29, 00:20:05,VALID,918.279,VALID,0,VALID,96.5353,VALID,0,VALID,20.0328,VALID,9,VALID,0.0683594,
2011-06-29, 00:21:05,VALID,918.256,VALID,0,VALID,96.5429,VALID,0,VALID,20.0328,VALID,10,VALID,0.695703,
2011-06-29, 00:22:04,VALID,918.221,VALID,0,VALID,96.5811,VALID,0,VALID,20.0928,VALID,10,VALID,0.748438,
2011-06-29, 00:23:04,VALID,918.209,VALID,0,VALID,96.5582,VALID,0,VALID,20.0928,VALID,9,VALID,1.35625,
2011-06-29, 00:24:04,VALID,918.224,VALID,0,VALID,96.5201,VALID,0,VALID,20.0523,VALID,10,VALID,0.634375,
2011-06-29, 00:25:04,VALID,918.199,VALID,0,VALID,96.5658,VALID,0,VALID,20.0928,VALID,10,VALID,0.913281,
2011-06-29, 00:26:04,VALID,918.158,VALID,0,VALID,96.5734,VALID,0,VALID,20.1123,VALID,10,VALID,1.12891,
2011-06-29, 00:27:04,VALID,918.146,VALID,0,VALID,96.5353,VALID,0,VALID,20.0733,VALID,17,VALID,1.40156,
2011-06-29, 00:28:04,VALID,918.147,VALID,0,VALID,96.4515,VALID,0,VALID,20.0328,VALID,37,VALID,1.20039,
2011-06-29, 00:29:04,VALID,918.149,VALID,0,VALID,96.421,VALID,0,VALID,19.9743,VALID,38,VALID,1.00977,
2011-06-29, 00:30:04,VALID,918.174,VALID,0,VALID,96.5506,VALID,0,VALID,19.9758,VALID,37,VALID,1.01719,
2011-06-29, 00:31:04,VALID,918.178,VALID,0,VALID,96.5963,VALID,0,VALID,19.9938,VALID,37,VALID,0.704687,
2011-06-29, 00:32:04,VALID,918.182,VALID,0,VALID,96.5582,VALID,0,VALID,19.9758,VALID,37,VALID,0.398828,
2011-06-29, 00:33:04,VALID,918.182,VALID,0,VALID,96.5048,VALID,0,VALID,19.9353,VALID,37,VALID,0.664453,
2011-06-29, 00:34:04,VALID,918.172,VALID,0,VALID,96.5887,VALID,0,VALID,19.9563,VALID,37,VALID,0.404297,
2011-06-29, 00:35:04,VALID,918.184,VALID,0,VALID,96.6115,VALID,0,VALID,19.9743,VALID,33,VALID,1.21172,
2011-06-29, 00:36:04,VALID,918.162,VALID,0,VALID,96.6268,VALID,0,VALID,19.9953,VALID,23,VALID,1.28594,
2011-06-29, 00:37:04,VALID,918.131,VALID,0,VALID,96.6192,VALID,0,VALID,19.9758,VALID,9,VALID,0.992578,
2011-06-29, 00:38:04,VALID,918.116,VALID,0,VALID,96.6115,VALID,0,VALID,19.9353,VALID,9,VALID,0.748828,
2011-06-29, 00:39:04,VALID,918.088,VALID,0,VALID,96.6115,VALID,0,VALID,19.9563,VALID,9,VALID,0.994531,
2011-06-29, 00:40:04,VALID,918.046,VALID,0,VALID,96.6115,VALID,0,VALID,19.9353,VALID,9,VALID,0.934766,
2011-06-29, 00:41:04,VALID,918.045,VALID,0,VALID,96.6878,VALID,0,VALID,19.9953,VALID,9,VALID,1.04883,
2011-06-29, 00:42:04,VALID,918.003,VALID,0,VALID,96.5887,VALID,0,VALID,19.9563,VALID,9,VALID,0.421094,
2011-06-29, 00:43:04,VALID,918.018,VALID,0,VALID,96.6192,VALID,0,VALID,19.9368,VALID,9,VALID,0.88125,
2011-06-29, 00:44:04,VALID,917.978,VALID,0,VALID,96.5506,VALID,0,VALID,19.9173,VALID,9,VALID,0.760938,
2011-06-29, 00:45:04,VALID,917.972,VALID,0,VALID,96.6344,VALID,0,VALID,19.8978,VALID,9,VALID,0.94375,
2011-06-29, 00:46:04,VALID,917.922,VALID,0,VALID,96.7107,VALID,0,VALID,19.9158,VALID,9,VALID,0.863281,
2011-06-29, 00:47:04,VALID,917.903,VALID,0,VALID,96.6573,VALID,0,VALID,19.9173,VALID,9,VALID,0.678516,
2011-06-29, 00:48:04,VALID,917.896,VALID,0,VALID,96.6725,VALID,0,VALID,19.9368,VALID,10,VALID,0.737891,
2011-06-29, 00:49:04,VALID,917.872,VALID,0,VALID,96.5658,VALID,0,VALID,19.8783,VALID,9,VALID,1.45273,
2011-06-29, 00:50:04,VALID,917.879,VALID,0,VALID,96.5734,VALID,0,VALID,19.8588,VALID,18,VALID,1.2582,
2011-06-29, 00:51:04,VALID,917.88,VALID,0,VALID,96.5887,VALID,0,VALID,19.8588,VALID,18,VALID,0.89375,
2011-06-29, 00:52:04,VALID,917.856,VALID,0,VALID,96.6725,VALID,0,VALID,19.8573,VALID,18,VALID,0.602344,
2011-06-29, 00:53:04,VALID,917.894,VALID,0,VALID,96.703,VALID,0,VALID,19.9368,VALID,18,VALID,0.744531,
2011-06-29, 00:54:04,VALID,917.852,VALID,0,VALID,96.703,VALID,0,VALID,19.9368,VALID,18,VALID,0.619922,
2011-06-29, 00:55:04,VALID,917.844,VALID,0,VALID,96.7107,VALID,0,VALID,19.9968,VALID,18,VALID,0.626562,
2011-06-29, 00:56:04,VALID,917.864,VALID,0,VALID,96.6954,VALID,0,VALID,19.9338,VALID,18,VALID,0.573828,
2011-06-29, 00:57:04,VALID,917.836,VALID,0,VALID,96.5353,VALID,0,VALID,19.9368,VALID,356,VALID,1.5457,
2011-06-29, 00:58:04,VALID,917.847,VALID,0,VALID,96.4896,VALID,0,VALID,19.8783,VALID,324,VALID,0.864844,
2011-06-29, 00:59:04,VALID,917.84,VALID,0,VALID,96.5353,VALID,0,VALID,19.8378,VALID,324,VALID,0.777344,
2011-06-29, 01:00:04,VALID,917.824,VALID,0,VALID,96.5734,VALID,0,VALID,19.8768,VALID,24,VALID,1.16914,
2011-06-29, 01:01:04,VALID,917.809,VALID,0,VALID,96.5506,VALID,0,VALID,19.8573,VALID,24,VALID,0.966797,
2011-06-29, 01:02:04,VALID,917.816,VALID,0,VALID,96.5582,VALID,0,VALID,19.8573,VALID,24,VALID,1.04258,
2011-06-29, 01:03:04,VALID,917.825,VALID,0,VALID,96.6039,VALID,0,VALID,19.9203,VALID,24,VALID,0.749219,
2011-06-29, 01:04:04,VALID,917.86,VALID,0,VALID,96.5429,VALID,0,VALID,19.8183,VALID,24,VALID,0.710938,
2011-06-29, 01:05:04,VALID,917.839,VALID,0,VALID,96.5353,VALID,0,VALID,19.8168,VALID,24,VALID,0.323828,
2011-06-29, 01:06:04,VALID,917.879,VALID,0,VALID,96.5201,VALID,0,VALID,19.8603,VALID,24,VALID,0.213672,
2011-06-29, 01:07:04,VALID,917.87,VALID,0,VALID,96.5658,VALID,0,VALID,19.8768,VALID,24,VALID,0.691406,
2011-06-29, 01:08:04,VALID,917.861,VALID,0,VALID,96.6344,VALID,0,VALID,19.9173,VALID,24,VALID,0.795313,
2011-06-29, 01:09:04,VALID,917.818,VALID,0,VALID,96.6039,VALID,0,VALID,19.8963,VALID,24,VALID,0.925391,
2011-06-29, 01:10:04,VALID,917.834,VALID,0,VALID,96.5429,VALID,0,VALID,19.8963,VALID,24,VALID,0.947656,
2011-06-29, 01:11:04,VALID,917.834,VALID,0,VALID,96.5201,VALID,0,VALID,19.8783,VALID,24,VALID,0.5625,
2011-06-29, 01:12:04,VALID,917.842,VALID,0,VALID,96.5277,VALID,0,VALID,19.8783,VALID,357,VALID,0.58125,
2011-06-29, 01:13:04,VALID,917.834,VALID,0,VALID,96.5658,VALID,0,VALID,19.8978,VALID,356,VALID,0.498828,
2011-06-29, 01:14:04,VALID,917.815,VALID,0,VALID,96.5048,VALID,0,VALID,19.8978,VALID,356,VALID,0.601172,
2011-06-29, 01:15:04,VALID,917.833,VALID,0,VALID,96.5048,VALID,0,VALID,19.8978,VALID,350,VALID,0.860937,
2011-06-29, 01:16:04,VALID,917.823,VALID,0,VALID,96.5582,VALID,0,VALID,19.8963,VALID,350,VALID,0.775391,
2011-06-29, 01:17:04,VALID,917.789,VALID,0,VALID,96.5811,VALID,0,VALID,19.9173,VALID,350,VALID,0.664063,
2011-06-29, 01:18:04,VALID,917.808,VALID,0,VALID,96.5124,VALID,0,VALID,19.9173,VALID,350,VALID,0.636719,
2011-06-29, 01:19:04,VALID,917.791,VALID,0,VALID,96.4819,VALID,0,VALID,19.9173,VALID,350,VALID,0.830859,
2011-06-29, 01:20:04,VALID,917.787,VALID,0,VALID,96.4591,VALID,0,VALID,19.8978,VALID,350,VALID,0.829687,
2011-06-29, 01:21:04,VALID,917.801,VALID,0,VALID,96.4515,VALID,0,VALID,19.9173,VALID,355,VALID,1.07031,
2011-06-29, 01:22:04,VALID,917.79,VALID,0,VALID,96.4667,VALID,0,VALID,19.9173,VALID,1,VALID,0.289844,
2011-06-29, 01:23:04,VALID,917.768,VALID,0,VALID,96.5124,VALID,0,VALID,19.9173,VALID,1,VALID,0.128906,
2011-06-29, 01:24:04,VALID,917.774,VALID,0,VALID,96.4667,VALID,0,VALID,19.9578,VALID,1,VALID,0.2375,
2011-06-29, 01:25:04,VALID,917.784,VALID,0,VALID,96.4896,VALID,0,VALID,19.9368,VALID,1,VALID,0.295312,
2011-06-29, 01:26:04,VALID,917.754,VALID,0,VALID,96.4286,VALID,0,VALID,19.9563,VALID,1,VALID,0.161719,
2011-06-29, 01:27:04,VALID,917.747,VALID,0,VALID,96.4515,VALID,0,VALID,19.9368,VALID,1,VALID,0.15625,
2011-06-29, 01:28:04,VALID,917.741,VALID,0,VALID,96.4591,VALID,0,VALID,19.9758,VALID,1,VALID,0,
2011-06-29, 01:29:04,VALID,917.71,VALID,0,VALID,96.4133,VALID,0,VALID,19.9563,VALID,1,VALID,0.371484,
2011-06-29, 01:30:04,VALID,917.705,VALID,0,VALID,96.36,VALID,0,VALID,19.9563,VALID,1,VALID,0.140234,
2011-06-29, 01:31:04,VALID,917.666,VALID,0,VALID,96.3524,VALID,0,VALID,19.9368,VALID,1,VALID,0.0515625,
2011-06-29, 01:32:04,VALID,917.646,VALID,0,VALID,96.3752,VALID,0,VALID,19.9368,VALID,1,VALID,0,
2011-06-29, 01:33:04,VALID,917.657,VALID,0,VALID,96.36,VALID,0,VALID,19.9563,VALID,1,VALID,0,
2011-06-29, 01:34:04,VALID,917.613,VALID,0,VALID,96.3981,VALID,0,VALID,19.9563,VALID,1,VALID,0.0851562,
2011-06-29, 01:35:04,VALID,917.603,VALID,0,VALID,96.3676,VALID,0,VALID,19.9758,VALID,1,VALID,0.430469,
2011-06-29, 01:36:04,VALID,917.603,VALID,0,VALID,96.3524,VALID,0,VALID,19.9758,VALID,1,VALID,0.258594,
2011-06-29, 01:37:04,VALID,917.564,VALID,0,VALID,96.3371,VALID,0,VALID,19.9758,VALID,1,VALID,0.0117188,
2011-06-29, 01:38:04,VALID,917.565,VALID,0,VALID,96.4057,VALID,0,VALID,19.9743,VALID,1,VALID,0.142578,
2011-06-29, 01:39:04,VALID,917.58,VALID,0,VALID,96.4438,VALID,0,VALID,20.0538,VALID,1,VALID,0.375,
2011-06-29, 01:40:04,VALID,917.548,VALID,0,VALID,96.4133,VALID,0,VALID,20.0553,VALID,1,VALID,0.0429688,
2011-06-29, 01:41:04,VALID,917.544,VALID,0,VALID,96.3981,VALID,0,VALID,20.0343,VALID,1,VALID,0,
2011-06-29, 01:42:04,VALID,917.542,VALID,0,VALID,96.3524,VALID,0,VALID,20.0148,VALID,1,VALID,0,
2011-06-29, 01:43:04,VALID,917.517,VALID,0,VALID,96.3752,VALID,0,VALID,20.0343,VALID,1,VALID,0.183984,
2011-06-29, 01:44:04,VALID,917.517,VALID,0,VALID,96.3905,VALID,0,VALID,20.0538,VALID,1,VALID,0.000390625,
2011-06-29, 01:45:04,VALID,917.515,VALID,0,VALID,96.4133,VALID,0,VALID,20.0733,VALID,1,VALID,0.453516,
2011-06-29, 01:46:04,VALID,917.515,VALID,0,VALID,96.4057,VALID,0,VALID,20.0733,VALID,1,VALID,0.455469,
2011-06-29, 01:47:04,VALID,917.562,VALID,0,VALID,96.4438,VALID,0,VALID,20.0913,VALID,2,VALID,0.315625,
2011-06-29, 01:48:04,VALID,917.529,VALID,0,VALID,96.4515,VALID,0,VALID,20.0913,INVALID,360,VALID,0.0140625,
2011-06-29, 01:49:04,VALID,917.548,VALID,0,VALID,96.3829,VALID,0,VALID,20.0733,VALID,1,VALID,0,
2011-06-29, 01:50:04,VALID,917.53,VALID,0,VALID,96.36,VALID,0,VALID,20.0328,VALID,1,VALID,0.139453,
2011-06-29, 01:51:04,VALID,917.564,VALID,0.2,VALID,96.36,VALID,0,VALID,20.0538,VALID,1,VALID,0,
2011-06-29, 01:52:04,VALID,917.52,VALID,0,VALID,96.3905,VALID,0,VALID,20.0733,VALID,1,VALID,0,
2011-06-29, 01:53:04,VALID,917.539,VALID,0,VALID,96.4057,VALID,0,VALID,20.0733,VALID,1,VALID,0,
2011-06-29, 01:54:04,VALID,917.548,VALID,0,VALID,96.421,VALID,0,VALID,20.0928,VALID,1,VALID,0,
2011-06-29, 01:55:04,VALID,917.526,VALID,0,VALID,96.421,VALID,0,VALID,20.1123,VALID,1,VALID,0.270312,
2011-06-29, 01:56:04,VALID,917.537,VALID,0,VALID,96.4057,VALID,0,VALID,20.0718,VALID,1,VALID,0,
2011-06-29, 01:57:04,VALID,917.519,VALID,0,VALID,96.4057,VALID,0,VALID,20.0928,VALID,1,VALID,0,
2011-06-29, 01:58:04,VALID,917.527,VALID,0.2,VALID,96.3981,VALID,0,VALID,20.0718,VALID,1,VALID,0.381641,
2011-06-29, 01:59:04,VALID,917.543,VALID,0,VALID,96.3676,VALID,0,VALID,20.0538,VALID,1,VALID,0.725391,
2011-06-29, 02:00:04,VALID,917.53,VALID,0,VALID,96.4438,VALID,0,VALID,20.0733,VALID,1,VALID,0.826953,
2011-06-29, 02:01:04,VALID,917.519,VALID,0,VALID,96.4743,VALID,0,VALID,20.0928,VALID,1,VALID,0.243359,
2011-06-29, 02:02:04,VALID,917.497,VALID,0.2,VALID,96.3142,VALID,0,VALID,20.0538,VALID,26,VALID,1.65352,
2011-06-29, 02:03:04,VALID,917.499,VALID,0,VALID,96.3447,VALID,0,VALID,20.0133,VALID,337,VALID,0.792578,
2011-06-29, 02:04:04,VALID,917.497,VALID,0,VALID,96.1618,VALID,0,VALID,19.8978,VALID,26,VALID,2.40508,
2011-06-29, 02:05:04,VALID,917.444,VALID,0.2,VALID,96.1313,VALID,0,VALID,19.8393,VALID,38,VALID,1.7668,
2011-06-29, 02:06:04,VALID,917.457,VALID,0,VALID,96.1236,VALID,0,VALID,19.7808,VALID,30,VALID,2.40742,
2011-06-29, 02:07:04,VALID,917.447,VALID,0,VALID,96.1389,VALID,0,VALID,19.7418,VALID,23,VALID,1.81523,
2011-06-29, 02:08:04,VALID,917.46,VALID,0,VALID,96.1999,VALID,0,VALID,19.7418,VALID,31,VALID,2.18906,
2011-06-29, 02:09:04,VALID,917.467,VALID,0.2,VALID,96.1694,VALID,0,VALID,19.6833,VALID,16,VALID,1.64531,
2011-06-29, 02:10:04,VALID,917.453,VALID,0,VALID,96.1313,VALID,0,VALID,19.6248,VALID,7,VALID,1.16211,
2011-06-29, 02:11:04,VALID,917.457,VALID,0,VALID,96.1999,VALID,0,VALID,19.6248,VALID,5,VALID,0.670313,
2011-06-29, 02:12:04,VALID,917.425,VALID,0,VALID,96.2456,VALID,0,VALID,19.6053,VALID,26,VALID,1.13906,
2011-06-29, 02:13:04,VALID,917.406,VALID,0,VALID,96.2533,VALID,0,VALID,19.5858,VALID,69,VALID,1.24727,
2011-06-29, 02:14:04,VALID,917.406,VALID,0,VALID,96.238,VALID,0,VALID,19.5663,VALID,15,VALID,0.558203,
2011-06-29, 02:15:04,VALID,917.423,VALID,0,VALID,96.2761,VALID,0.107441,VALID,19.5648,VALID,31,VALID,0.503516,
2011-06-29, 02:16:04,VALID,917.385,VALID,0,VALID,96.3447,VALID,0,VALID,19.5048,VALID,31,VALID,0.958594,
2011-06-29, 02:17:04,VALID,917.371,VALID,0,VALID,96.2914,VALID,0,VALID,19.5258,VALID,17,VALID,0.973437,
2011-06-29, 02:18:04,VALID,917.38,VALID,0,VALID,96.2761,VALID,0.107441,VALID,19.4868,VALID,22,VALID,1.00859,
2011-06-29, 02:19:04,VALID,917.377,VALID,0,VALID,96.3524,VALID,0.107441,VALID,19.4868,VALID,34,VALID,0.879687,
2011-06-29, 02:20:04,VALID,917.331,VALID,0,VALID,96.3752,VALID,0,VALID,19.5063,VALID,71,VALID,0.807031,
2011-06-29, 02:21:04,VALID,917.336,VALID,0,VALID,96.3447,VALID,0,VALID,19.4673,VALID,45,VALID,1.35781,
2011-06-29, 02:22:04,VALID,917.304,VALID,0.2,VALID,96.3905,VALID,0.107441,VALID,19.4673,VALID,358,VALID,0.751172,
2011-06-29, 02:23:04,VALID,917.292,VALID,0,VALID,96.3981,VALID,0,VALID,19.4478,VALID,10,VALID,0.749219,
2011-06-29, 02:24:04,VALID,917.287,VALID,0,VALID,96.4362,VALID,0.107441,VALID,19.4868,VALID,10,VALID,0.806641,
2011-06-29, 02:25:04,VALID,917.316,VALID,0,VALID,96.4896,VALID,0,VALID,19.4883,VALID,17,VALID,1.05742,
2011-06-29, 02:26:04,VALID,917.29,VALID,0,VALID,96.4362,VALID,0,VALID,19.4283,VALID,108,VALID,0.15625,
2011-06-29, 02:27:04,VALID,917.297,VALID,0,VALID,96.4667,VALID,0,VALID,19.4493,VALID,32,VALID,1.43906,
2011-06-29, 02:28:04,VALID,917.3,VALID,0,VALID,96.5048,VALID,0,VALID,19.4493,VALID,32,VALID,0.964063,
2011-06-29, 02:29:04,VALID,917.287,VALID,0,VALID,96.5124,VALID,0,VALID,19.4493,VALID,32,VALID,0.335156,
2011-06-29, 02:30:04,VALID,917.293,VALID,0,VALID,96.5506,VALID,0,VALID,19.4688,VALID,32,VALID,0.305859,
2011-06-29, 02:31:04,VALID,917.307,VALID,0,VALID,96.5201,VALID,0,VALID,19.4298,VALID,32,VALID,0.308594,
2011-06-29, 02:32:04,VALID,917.271,VALID,0,VALID,96.6039,VALID,0,VALID,19.4493,VALID,32,VALID,0.379687,
2011-06-29, 02:33:04,VALID,917.267,VALID,0,VALID,96.5963,VALID,0,VALID,19.4298,VALID,32,VALID,1.1375,
2011-06-29, 02:34:04,VALID,917.299,VALID,0,VALID,96.5887,VALID,0,VALID,19.4493,VALID,32,VALID,0.257813,
2011-06-29, 02:35:04,VALID,917.251,VALID,0,VALID,96.5658,VALID,0,VALID,19.4103,VALID,32,VALID,0.528516,
2011-06-29, 02:36:04,VALID,917.238,VALID,0,VALID,96.6115,VALID,0,VALID,19.4103,VALID,32,VALID,0.758203,
2011-06-29, 02:37:04,VALID,917.238,VALID,0,VALID,96.6725,VALID,0,VALID,19.4103,VALID,32,VALID,0.496094,
2011-06-29, 02:38:04,VALID,917.247,VALID,0,VALID,96.7183,VALID,0,VALID,19.4283,VALID,32,VALID,0.397656,
2011-06-29, 02:39:04,VALID,917.225,VALID,0,VALID,96.6268,VALID,0,VALID,19.3893,VALID,98,VALID,0.816016,
2011-06-29, 02:40:04,VALID,917.248,VALID,0,VALID,96.7183,VALID,0,VALID,19.4298,VALID,35,VALID,0.248437,
2011-06-29, 02:41:04,VALID,917.222,VALID,0,VALID,96.7335,VALID,0,VALID,19.4088,VALID,35,VALID,0.587109,
2011-06-29, 02:42:04,VALID,917.216,VALID,0,VALID,96.7793,VALID,0,VALID,19.4493,VALID,35,VALID,0.264844,
2011-06-29, 02:43:04,VALID,917.208,VALID,0,VALID,96.764,VALID,0,VALID,19.4493,VALID,35,VALID,0.471094,
2011-06-29, 02:44:04,VALID,917.198,VALID,0,VALID,96.7411,VALID,0,VALID,19.4103,VALID,35,VALID,0.183594,
2011-06-29, 02:45:04,VALID,917.185,VALID,0,VALID,96.7793,VALID,0.107441,VALID,19.4283,VALID,35,VALID,0.4875,
2011-06-29, 02:46:04,VALID,917.189,VALID,0,VALID,96.7869,VALID,0,VALID,19.4283,VALID,35,VALID,0.214453,
2011-06-29, 02:47:04,VALID,917.212,VALID,0.2,VALID,96.7793,VALID,0,VALID,19.4283,VALID,35,VALID,0.00507812,
2011-06-29, 02:48:04,VALID,917.211,VALID,0,VALID,96.7564,VALID,0.107441,VALID,19.4088,VALID,35,VALID,0.816016,
2011-06-29, 02:49:04,VALID,917.206,VALID,0,VALID,96.825,VALID,0,VALID,19.4493,VALID,35,VALID,0.511328,
2011-06-29, 02:50:04,VALID,917.216,VALID,0,VALID,96.8936,VALID,0.107441,VALID,19.4478,VALID,35,VALID,0.682031,
2011-06-29, 02:51:04,VALID,917.19,VALID,0,VALID,96.9241,VALID,0.107441,VALID,19.4853,VALID,35,VALID,0.936719,
2011-06-29, 02:52:04,VALID,917.196,VALID,0,VALID,96.9012,VALID,0,VALID,19.4853,VALID,35,VALID,0.258984,
2011-06-29, 02:53:04,VALID,917.209,VALID,0,VALID,96.8403,VALID,0.107441,VALID,19.5078,VALID,35,VALID,1.27773,
2011-06-29, 02:54:04,VALID,917.218,VALID,0,VALID,96.8479,VALID,0.107441,VALID,19.4868,VALID,49,VALID,0.901172,
2011-06-29, 02:55:04,VALID,917.197,VALID,0,VALID,96.886,VALID,0,VALID,19.4868,VALID,50,VALID,0.73125,
2011-06-29, 02:56:04,VALID,917.226,VALID,0.2,VALID,96.9089,VALID,0,VALID,19.5063,VALID,50,VALID,0.741406,
2011-06-29, 02:57:04,VALID,917.217,VALID,0,VALID,96.8707,VALID,0.107441,VALID,19.4658,VALID,39,VALID,1.06641,
2011-06-29, 02:58:04,VALID,917.243,VALID,0.2,VALID,96.9012,VALID,0,VALID,19.4868,VALID,54,VALID,0.511328,
2011-06-29, 02:59:04,VALID,917.272,VALID,0.6,VALID,96.8707,VALID,0.107441,VALID,19.4478,VALID,54,VALID,0.548828,
2011-06-29, 03:00:04,VALID,917.256,VALID,0.4,VALID,96.9241,VALID,0,VALID,19.4688,VALID,54,VALID,1.14023,
2011-06-29, 03:01:04,VALID,917.285,VALID,0.2,VALID,96.9165,VALID,0,VALID,19.4493,VALID,54,VALID,0.359375,
2011-06-29, 03:02:04,VALID,917.23,VALID,0.4,VALID,96.886,VALID,0,VALID,19.4298,VALID,34,VALID,1.56914,
2011-06-29, 03:03:04,VALID,917.263,VALID,0.2,VALID,96.9165,VALID,0,VALID,19.4103,VALID,31,VALID,1.08672,
2011-06-29, 03:04:04,VALID,917.265,VALID,0.2,VALID,96.9317,VALID,0,VALID,19.4298,VALID,30,VALID,0.352734,
2011-06-29, 03:05:04,VALID,917.206,VALID,0.4,VALID,96.9165,VALID,0,VALID,19.3893,VALID,32,VALID,1.32305,
2011-06-29, 03:06:04,VALID,917.27,VALID,0.2,VALID,96.9241,VALID,0,VALID,19.4298,VALID,277,VALID,0.745703,
2011-06-29, 03:07:04,VALID,917.19,VALID,0,VALID,96.9165,VALID,0,VALID,19.3698,VALID,6,VALID,1.90586,
2011-06-29, 03:08:04,VALID,917.185,VALID,0.2,VALID,96.9241,VALID,0,VALID,19.3713,VALID,280,VALID,0.828516,
2011-06-29, 03:09:04,VALID,917.214,VALID,0.2,VALID,96.9241,VALID,0,VALID,19.3099,VALID,19,VALID,0.7125,
2011-06-29, 03:10:04,VALID,917.238,VALID,0.2,VALID,96.9241,VALID,0,VALID,19.3113,VALID,220,VALID,0.830078,
2011-06-29, 03:11:04,VALID,917.201,VALID,0,VALID,96.9394,VALID,0,VALID,19.3533,VALID,122,VALID,0.446484,
2011-06-29, 03:12:04,VALID,917.241,VALID,0.2,VALID,97.0156,VALID,0,VALID,19.2904,VALID,59,VALID,1.70508,
2011-06-29, 03:13:04,VALID,917.229,VALID,0,VALID,96.9546,VALID,0,VALID,19.2709,VALID,213,VALID,0.519141,
2011-06-29, 03:14:04,VALID,917.214,VALID,0,VALID,96.9851,VALID,0,VALID,19.3128,VALID,29,VALID,1.61055,
2011-06-29, 03:15:04,VALID,917.229,VALID,0.2,VALID,97.0232,VALID,0,VALID,19.2694,VALID,17,VALID,1.47773,
2011-06-29, 03:16:04,VALID,917.22,VALID,0,VALID,96.9775,VALID,0,VALID,19.3338,VALID,19,VALID,0.844922,
2011-06-29, 03:17:04,VALID,917.184,VALID,0.2,VALID,96.9775,VALID,0,VALID,19.2709,VALID,39,VALID,1.85703,
2011-06-29, 03:18:04,VALID,917.185,VALID,0.2,VALID,96.9927,VALID,0,VALID,19.2709,VALID,36,VALID,2.25195,
2011-06-29, 03:19:04,VALID,917.218,VALID,0,VALID,96.9851,VALID,0,VALID,19.2334,VALID,31,VALID,1.81602,
2011-06-29, 03:20:04,VALID,917.25,VALID,0.2,VALID,97.0385,VALID,0.107441,VALID,19.2918,VALID,27,VALID,0.324219,
2011-06-29, 03:21:04,VALID,917.276,VALID,0,VALID,97.0232,VALID,0,VALID,19.3128,VALID,27,VALID,0.416406,
2011-06-29, 03:22:04,VALID,917.203,VALID,0.2,VALID,97.0156,VALID,0,VALID,19.3143,VALID,226,VALID,0.699219,
2011-06-29, 03:23:04,VALID,917.231,VALID,0,VALID,97.0156,VALID,0,VALID,19.2528,VALID,298,VALID,0.823438,
2011-06-29, 03:24:04,VALID,917.262,VALID,0,VALID,96.947,VALID,0.107441,VALID,19.2139,VALID,63,VALID,1.14492,
2011-06-29, 03:25:04,VALID,917.067,VALID,0.2,VALID,96.9165,VALID,0.107441,VALID,19.1734,VALID,45,VALID,3.74727,
2011-06-29, 03:26:04,VALID,917.148,VALID,0,VALID,96.7411,VALID,0,VALID,19.0175,VALID,122,VALID,2.00078,
2011-06-29, 03:27:04,VALID,917.298,VALID,0,VALID,96.7335,VALID,0.107441,VALID,18.9604,VALID,42,VALID,2.65703,
2011-06-29, 03:28:04,VALID,917.211,VALID,0,VALID,96.7335,VALID,0,VALID,18.9019,VALID,32,VALID,1.55039,
2011-06-29, 03:29:04,VALID,917.295,VALID,0,VALID,96.6802,VALID,0,VALID,18.824,VALID,196,VALID,1.38359,
2011-06-29, 03:30:04,VALID,917.25,VALID,0,VALID,96.6573,VALID,0,VALID,18.7265,VALID,325,VALID,2.48164,
2011-06-29, 03:31:04,VALID,917.204,VALID,0,VALID,96.5124,VALID,0,VALID,18.629,VALID,11,VALID,2.75625,
2011-06-29, 03:32:04,VALID,917.19,VALID,0,VALID,96.3524,VALID,0,VALID,18.5358,VALID,35,VALID,3.01875,
2011-06-29, 03:33:04,VALID,917.294,VALID,0,VALID,96.36,VALID,0,VALID,18.4341,VALID,23,VALID,2.32852,
2011-06-29, 03:34:04,VALID,917.285,VALID,0,VALID,96.4515,VALID,0,VALID,18.4146,VALID,26,VALID,2.04961,
2011-06-29, 03:35:04,VALID,917.242,VALID,0.2,VALID,96.299,VALID,0,VALID,18.3185,VALID,23,VALID,3.6918,
2011-06-29, 03:36:04,VALID,917.297,VALID,0,VALID,96.3371,VALID,0.107441,VALID,18.2977,VALID,270,VALID,0.960547,
2011-06-29, 03:37:04,VALID,917.354,VALID,0,VALID,96.299,VALID,0,VALID,18.2601,VALID,126,VALID,1.39023,
2011-06-29, 03:38:04,VALID,917.361,VALID,0,VALID,96.3295,VALID,0,VALID,18.242,VALID,45,VALID,3.02422,
2011-06-29, 03:39:04,VALID,917.343,VALID,0,VALID,96.3371,VALID,0,VALID,18.1821,VALID,46,VALID,3.47852,
2011-06-29, 03:40:04,VALID,917.41,VALID,0,VALID,96.4438,VALID,0,VALID,18.2433,VALID,311,VALID,0.805469,
2011-06-29, 03:41:04,VALID,917.392,VALID,0,VALID,96.4438,VALID,0,VALID,18.2016,VALID,40,VALID,1.7625,
2011-06-29, 03:42:04,VALID,917.544,VALID,0,VALID,96.4743,VALID,0,VALID,18.1417,VALID,2,VALID,2.08984,
2011-06-29, 03:43:04,VALID,917.461,VALID,0,VALID,96.4133,VALID,0,VALID,18.1236,VALID,30,VALID,2.60977,
2011-06-29, 03:44:04,VALID,917.469,VALID,0,VALID,96.5124,VALID,0,VALID,18.125,VALID,24,VALID,1.76016,
2011-06-29, 03:45:04,VALID,917.437,VALID,0,VALID,96.5277,VALID,0,VALID,18.1069,VALID,354,VALID,0.951563,
2011-06-29, 03:46:04,VALID,917.453,VALID,0,VALID,96.5963,VALID,0,VALID,18.1055,VALID,21,VALID,2.33359,